{"data":{"norad_id":69848,"intl_designator":"2026-155A","name":"QIANFAN-219","alt_names":[],"object_type":"PAYLOAD","status":"ACTIVE","operator":null,"country":"PRC","launch_date":"2026-07-05","launch_site_code":"WSC","launch_vehicle":null,"mission":null,"orbit_class":"UNKNOWN","rcs_meters":null,"size_class":null,"mass_kg":null,"dimensions":null,"purposes":[],"wikipedia_slug":null,"has_3d_model":false,"image_url":null,"decayed_at":null,"tle_current":{"epoch":"2026-09-20T03:59:09.496032Z","epoch_age_seconds":50513,"freshness":"FRESH","line1":"1 69848U 26155A   26263.16608213  .00000138  00000+0  18723-3 0  9995","line2":"2 69848  89.0086  53.7331 0037136  11.4274 348.7713 13.53480374 10696","mean_motion":13.53480374,"eccentricity":0.0037136,"inclination_deg":89.0086,"raan_deg":53.7331,"arg_perigee_deg":11.4274,"mean_anomaly_deg":348.7713,"bstar":0.00018723,"rev_number":1069,"period_min":106.39238127586,"perigee_km":1031.8606137032,"apogee_km":1087.1012897543,"semimajor_km":7437.6179517287,"source":"CELESTRAK","updated_at":"2026-09-20T09:00:25.133432Z"}}}